www.pogodaiklimat.ru

Погода и климат >> Архив погоды >> Иран >> Нехбандан


ПОГОДА в Нехбандане

  • Прогноз погоды в Нехбандане
  • Монитор погоды в Нехбандане

АРХИВ ПОГОДЫ в Нехбандане

Время (UTC), дата Ветер
(напр.,м/с)
 
Видим.   Явления Облачность Т
(С)
Тd
(С)
f
(%)
Тe
(С)
Тes
(С)
Комфортность P
(гПа)
Po
(гПа)
Тmin
(С)
Tmax
(С)
R
(мм)
R24
(мм)
S
(см)
18 12.06 штиль 0 15 км ясно +24.3 -16.8 5 +21 +21 комфорт 1002.7 877.4
21 12.06 В 2 15 км ясно +21.2 -12.5 9 +20 +20 1001.6 876.6
00 13.06 штиль 0 15 км ясно +19.1 -12.3 11 +19 +19 1001.4 876.3
03 13.06 штиль 0 20 км ясно +23.2 -10.7 10 +21 +26 комфорт 1002.4 877.3 +16.9
06 13.06 С 4 20 км ясно +31.0 -20.6 3 +26 +38 жарко 1001.7 877.0
09 13.06 ЮВ 2 20 км ясно +35.5 -32.3 1 +30 +51 опасность
солнечного
удара
1000.3 876.0
12 13.06 ЮВ 4 20 км ясно +36.3 -23.6 2 +31 +37 жарко 999.2 874.8
15 13.06 штиль 0 15 км ясно +32.4 -21.8 2 +27 +27 жарко 999.4 875.0 +36.8
18 13.06 штиль 0 15 км ясно +28.2 -17.5 4 +24 +24 комфорт 999.8 876.1
21 13.06 штиль 0 15 км ясно +23.8 -11.9 8 +21 +21 комфорт 999.8 876.1
00 14.06 штиль 0 15 км ясно +23.8 -11.1 9 +21 +21 комфорт 998.9 875.5
03 14.06 С 3 20 км 1/0
[Ac trans]
+28.6 -11.5 6 +25 +27 комфорт 1000.3 876.9 +23.3
06 14.06 СВ 2 20 км 5/0
[Ac trans]
+33.2 -14.5 4 +28 +41 жарко 1000.9 877.5
09 14.06 В 3 20 км 1/0
[Ac trans]
+36.1 -15.0 3 +31 +47 жарко 1000.0 876.4
12 14.06 ЮВ 4 20 км 1/0
[Ac trans]
+37.0 -15.5 3 +32 +37 жарко 998.5 875.2
15 14.06 СВ 3 20 км 1/0
[Ac trans]
+33.0 -11.6 5 +28 +28 жарко 998.4 875.3 +37.9
18 14.06 СВ 4 15 км ясно +29.4 -7.5 8 +26 +26 жарко 999.8 876.8
21 14.06 С 5 15 км ясно +28.1 -7.2 9 +25 +25 комфорт 999.2 876.6
00 15.06 С 5 15 км ясно +27.2 -8.6 9 +24 +24 комфорт 999.7 877.0
03 15.06 С 5 20 км 4/0
[Ac cuf]
+28.6 -8.7 8 +25 +26 комфорт 1002.5 879.0 +26.7
06 15.06 СЗ 3 20 км ясно +32.6 -8.4 7 +28 +43 жарко 1003.3 879.7
09 15.06 С 6 20 км ясно +35.6 -13.1 4 +31 +39 жарко 1000.9 877.9
12 15.06 штиль 0 20 км 3/1 1200 м
[Cu hum Ac trans]
+36.4 -6.1 6 +32 +40 жарко 999.2 876.5
15 15.06 С 4 15 км ясно +32.4 -7.0 7 +28 +28 жарко 1000.4 877.0 +37.3
18 15.06 СЗ 3 15 км ясно +28.8 -3.5 12 +26 +26 жарко 1002.2 878.7
21 15.06 СВ 2 15 км ясно +26.6 -3.4 14 +24 +24 комфорт 1001.4 878.2
00 16.06 С 4 15 км ясно +26.1 -3.8 14 +24 +24 комфорт 1000.8 877.7
03 16.06 СВ 5 20 км ясно +27.8 -4.9 11 +25 +27 комфорт 1002.1 878.4 +25.5
06 16.06 С 6 20 км ясно +32.5 -8.7 6 +28 +35 жарко 1002.3 878.7
09 16.06 С 8 20 км ясно +36.3 -14.9 3 +31 +35 жарко 1000.6 877.5
12 16.06 С 6 20 км ясно +36.6 -16.2 3 +32 +35 жарко 999.5 876.5
15 16.06 С 5 20 км ясно +33.5 -13.5 4 +29 +29 жарко 999.2 876.0 +37.2
18 16.06 С 5 15 км ясно +30.0 -9.2 7 +26 +26 жарко 999.9 876.8
21 16.06 С 6 15 км ясно +28.2 -7.5 9 +25 +25 комфорт 999.4 876.8
00 17.06 С 5 15 км ясно +28.0 -7.6 9 +25 +25 комфорт 999.2 876.6
03 17.06 ЮЗ 2 20 км ясно +28.0 -2.8 13 +25 +29 комфорт 1001.1 877.8 +23.7
06 17.06 С 5 20 км ясно +34.0 -11.8 5 +29 +39 жарко 1000.9 878.0
09 17.06 С 5 20 км 1/1 1200 м
[Cu hum]
+37.2 -15.4 3 +32 +42 жарко 999.0 876.5
12 17.06 СЗ 5 18 км 1/1 1200 м
[Cu hum]
+38.2 -11.8 4 +34 +37 очень
жарко
996.6 874.6
15 17.06 С 5 18 км 1/1 1000 м
[Cu hum]
+33.8 -7.3 7 +30 +30 жарко 997.6 874.7 +38.9
18 17.06 С 3 15 км ясно +30.3 -6.1 9 +27 +27 жарко 998.9 876.3
21 17.06 Ю 2 15 км ясно +26.9 -3.9 13 +24 +24 комфорт 998.3 875.8
00 18.06 СВ 2 15 км ясно +23.9 -4.4 15 +22 +22 комфорт 998.6 875.7
03 18.06 СВ 3 20 км 1/0
[Ac trans]
+27.6 -5.5 11 +25 +27 комфорт 1000.4 877.1 +23.4
06 18.06 СВ 2 20 км ясно +33.1 -8.9 6 +29 +46 жарко 1000.1 877.2
09 18.06 СВ 6 20 км ясно +37.0 -14.3 3 +32 +40 жарко 997.9 875.3
12 18.06 СЗ 2 20 км 1/1 1200 м
[Cu hum]
+38.0 -13.0 3 +33 +40 жарко 996.7 873.9
15 18.06 СВ 3 15 км ясно +33.3 -10.9 5 +29 +29 жарко 997.0 874.0 +38.3
18 18.06 С 3 15 км ясно +29.2 -7.5 9 +26 +26 жарко 998.0 875.2
21 18.06 СВ 4 15 км ясно +28.0 -6.3 10 +25 +25 комфорт 997.0 874.8
00 19.06 В 3 15 км ясно +25.1 -5.5 13 +23 +23 комфорт 997.0 874.5
03 19.06 СВ 2 20 км ясно +28.0 -5.8 10 +25 +28 комфорт 998.6 875.5 +24.4
06 19.06 СВ 3 20 км ясно +33.4 -9.0 6 +29 +43 жарко 998.6 875.7
09 19.06 С 4 20 км ясно +36.5 -18.0 2 +32 +45 жарко 996.9 874.5
12 19.06 СВ 3 20 км ясно +37.5 -17.7 2 +33 +39 жарко 995.7 873.1

 

Местоположение метеостанции Нехбандан (Иран): широта 31.53 долгота 60.03 высота над уровнем моря 1211 м.

В архиве по умолчанию представлена погода в Нехбандане за последнюю неделю. Архивные данные за месяц целиком и за предыдущие месяцы, начиная с января 2011 года, Вы можете получить, выбрав интересующий диапазон дат из раскрывающегося списка и нажав кнопку "Ввод!".


*Определитесь, кто Вы:
робот инопланетянин человек

Внимание! Время в таблицах - всемирное. Для получения местного времени необходимо прибавить поправку, которая равна 3.5 ч.

Смотрите также архив погоды в соседних городах и на ближайших метеорологических станциях:

Погода в Заболе (Иран) (148 км)
Погода в Бирдженде (Иран) (168 км)
Погода в Захедане (Иран) (243 км)
Погода в Баме (Иран) (312 км)
Погода в Кермане (Иран) (325 км)
Погода в Фердоусе (Иран) (327 км)
Погода в Герате (Афганистан) (362 км)
Погода в Табасе (Иран) (371 км)
Погода в Нок-Кунди (Пакистан) (399 км)
Погода в Лашкаргахе (Афганистан) (411 км)

Пояснения к столбцам:

Ветер - указаны скорость ветра в м/с - средняя за 10 мин, порывы в срок и между сроками (в фигурных скобках) и направление, откуда дует ветер: С - северный, СВ - северо-восточный, В - восточный, ЮВ - юго-восточный, Ю - южный, ЮЗ - юго-западный, З - западный, СЗ - северо-западный.
Видимость - горизонтальная дальность видимости в метрах или километрах. При видимости от 1 до 10 км при отсутствии осадков обычно наблюдается дымка, при ухудшении видимости до 1 км и менее - туман. В сухую погоду видимость может ухудшаться дымом, пылью или мглою.
Явления - указаны атмосферные явления, наблюдавшиеся в срок или в последний час перед сроком; фигурными скобками обозначены явления, наблюдавшиеся между сроками (за 1-3 часа до срока); квадратными скобками обозначены град или гололедные отложения с указанием их диаметра в мм.
Облачность - указаны через наклонную черту общая и нижняя облачность в баллах и высота нижней границы облаков в метрах; квадратными скобками обозначены формы облаков: Ci - перистые, Cs - перисто-слоистые, Cc - перисто-кучевые, Ac - высококучевые, As - высокослоистые, Sc - слоисто-кучевые, Ns - слоисто-дождевые, Cu - кучевые, Cb - кучево-дождевые. Подробнее классификацию облаков см. в Атласе облаков (PDF).
T - Температура воздуха - температура, измеренная на высоте 2 м над землей.
Td - Температура точки росы - температура, при понижении до которой содержащийся в воздухе водяной пар достигнет насыщения.
f - Относительная влажность воздуха - влажноcть воздуха, измеренная на высоте 2 м над землей.
Te - Эффективная температура - температура, которую ощущает одетый по сезону человек в тени. Характеристика душности погоды. При расчете учитывается влияние влажности воздуха и скорости ветра на теплоощущения человека.
Tes - Эффективная температура на солнце - температура, которую ощущает человек, с поправкой на солнечный нагрев. Характеристика знойности погоды. Зависит от высоты солнца над горизонтом, облачности и скорости ветра. Ночью, в пасмурную погоду, а также при ветре 12 м/с и более поправка равна нулю.
P - Атмосферное давление - приведенное к уровню моря атмосферное давление.
Po - Атмосферное давление - измеренное на уровне метеостанции атмосферное давление.
Tmin - Минимальная температура - минимум температуры воздуха на высоте 2 м над землей.
Tmax - Максимальная температура - максимум температуры воздуха на высоте 2 м над землей.
R - Количество осадков - Количество выпавших осадков за период времени, мм. При наведении курсора мыши на число - период времени, за который выпало указанное количество осадков.
R24 - Количество осадков - Количество выпавших осадков за 24 часа, мм.
S - Снежный покров - Высота снежного покрова, см. При наведении курсора мыши на число - состояние снежного покрова и степень покрытия местности в баллах.